Atlanta, GA

2:19 PM EST on December 07, 2019 (GMT -0500)
The Hartsfield Atlanta International

Weather History for KATL - October, 2019

Change the Weather History Date:

Tuesday, October 8, 2019

  Actual Average Record
Temperature  
Mean Temperature 74 °F 66 °F  
Max Temperature 83 °F 75 °F 90 °F (1941)
Min Temperature 66 °F 57 °F 36 °F (1935)
Degree Days  
Heating Degree Days 0 2  
Month to date heating degree days 0 13  
Since 1 July heating degree days 0 24  
Cooling Degree Days 10 3  
Month to date cooling degree days 118 29  
Year to date cooling degree days 2595 1834  
Growing Degree Days 24 (Base 50)    
Moisture  
Dew Point 62 °F    
Average Humidity 68    
Maximum Humidity 87    
Minimum Humidity 47    
Precipitation  
Precipitation 0.00 in 0.12 in 2.34 in (1919)
Month to date precipitation 0.00 1.05  
Year to date precipitation 32.33 39.35  
Sea Level Pressure  
Sea Level Pressure 30.01 in    
Wind  
Wind Speed 7 mph ()    
Max Wind Speed 18 mph    
Max Gust Speed 21 mph    
Visibility 10.0 miles    
Events      
T = Trace of Precipitation, MM = Missing Value Source: Averaged Metar Reports

Daily Weather History Graph

Daily Weather History Graph

Search for Another Location

Airport or City:

Astronomy

Oct. 08, 2019 Rise Set
Actual Time 7:37 AM EDT 7:13 PM EDT
Civil Twilight 7:12 AM EDT 7:37 PM EDT
Nautical Twilight 6:43 AM EDT 8:06 PM EDT
Astronomical Twilight 6:14 AM EDT 8:35 PM EDT
Moon 4:54 PM EDT (10/8) 2:44 AM EDT (10/8)
Length of Visible Light 12h 25m
Length of Day
11h 36m
Waxing Gibbous, 77% of the Moon is Illuminated
Oct 8
Waxing Gibbous
Oct 13
Full
Oct 21
Last Quarter
Oct 27
New
Nov 4
First Quarter

Hourly Weather History & Observations

Time (EDT) Temp. Heat Index Dew Point Humidity Pressure Visibility Wind Dir Wind Speed Gust Speed Precip Events Conditions
12:52 AM 69.1 °F - 60.1 °F 73% 30.01 in 10.0 mi NNW 6.9 mph - N/A   Scattered Clouds
1:52 AM 69.1 °F - 61.0 °F 75% 30.00 in 10.0 mi North 6.9 mph - N/A   Scattered Clouds
2:52 AM 66.9 °F - 61.0 °F 81% 30.00 in 10.0 mi NNW 6.9 mph - N/A   Mostly Cloudy
3:52 AM 66.9 °F - 61.0 °F 81% 29.98 in 10.0 mi NNW 6.9 mph - N/A   Mostly Cloudy
4:52 AM 66.9 °F - 62.1 °F 84% 29.98 in 10.0 mi North 8.1 mph - N/A   Mostly Cloudy
5:52 AM 66.0 °F - 61.0 °F 84% 30.00 in 10.0 mi NW 5.8 mph - N/A   Mostly Cloudy
6:52 AM 66.0 °F - 61.0 °F 84% 30.01 in 10.0 mi NNW 10.4 mph - N/A   Mostly Cloudy
7:52 AM 66.0 °F - 61.0 °F 84% 30.02 in 10.0 mi NNW 6.9 mph - N/A   Mostly Cloudy
8:52 AM 66.9 °F - 61.0 °F 81% 30.03 in 10.0 mi North 8.1 mph - N/A   Mostly Cloudy
9:52 AM 68.0 °F - 61.0 °F 78% 30.04 in 10.0 mi Variable 3.5 mph - N/A   Mostly Cloudy
10:52 AM 73.0 °F - 62.1 °F 68% 30.06 in 10.0 mi North 8.1 mph - N/A   Scattered Clouds
11:52 AM 77.0 °F - 63.0 °F 62% 30.04 in 10.0 mi North 5.8 mph - N/A   Mostly Cloudy
12:52 PM 78.1 °F - 63.0 °F 60% 30.03 in 10.0 mi Calm Calm - N/A   Scattered Clouds
1:52 PM 78.1 °F - 63.0 °F 60% 30.01 in 10.0 mi North 8.1 mph - N/A   Mostly Cloudy
2:52 PM 80.1 °F 81.7 °F 64.0 °F 58% 29.98 in 10.0 mi NW 6.9 mph - N/A   Mostly Cloudy
3:52 PM 81.0 °F 82.2 °F 63.0 °F 54% 29.97 in 10.0 mi WNW 6.9 mph - N/A   Scattered Clouds
4:52 PM 81.0 °F 81.3 °F 59.0 °F 47% 29.97 in 10.0 mi NW 9.2 mph - N/A   Mostly Cloudy
5:52 PM 81.0 °F 81.6 °F 60.1 °F 49% 29.97 in 10.0 mi NNW 8.1 mph - N/A   Scattered Clouds
6:52 PM 80.1 °F 80.9 °F 60.1 °F 50% 29.98 in 10.0 mi North 6.9 mph - N/A   Mostly Cloudy
7:52 PM 79.0 °F - 60.1 °F 52% 29.99 in 10.0 mi North 8.1 mph - N/A   Scattered Clouds
8:52 PM 78.1 °F - 62.1 °F 58% 30.00 in 10.0 mi ENE 6.9 mph - N/A   Scattered Clouds
9:52 PM 75.0 °F - 62.1 °F 64% 30.02 in 10.0 mi East 11.5 mph - N/A   Partly Cloudy
10:52 PM 72.0 °F - 63.0 °F 73% 30.04 in 10.0 mi East 15.0 mph - N/A   Scattered Clouds
11:52 PM 70.0 °F - 64.0 °F 81% 30.05 in 10.0 mi East 13.8 mph - N/A   Scattered Clouds